Location: Houston
(29.7630°N, 95.3630°W)
Time: 23:51:59
(UTC-05:00)

Amateur Radio Satellites - All Passes

Search period start: 27 July 2016 23:21
Search period end: 28 July 2016 23:21
Location: Houston, 29.7630°N, 95.3630°W

Satellite Date Start Highest point End Downlink Frequencies (MHz)
Time Altitude Azimuth
50 SAT 27 Jul 23:26:42 23:27:55 11° 70° (ENE) 23:29:08 437.505
ESTCUBE 1 27 Jul 23:29:02 23:32:52 28° 72° (ENE) 23:36:41 437.505/2401.250
CUBEBUG 1 27 Jul 23:42:24 23:45:53 25° 72° (ENE) 23:49:24 437.445
VELOX 1 27 Jul 23:43:11 23:46:34 22° 71° (ENE) 23:49:57 145.980
AUBIESAT-1 27 Jul 23:46:43 23:47:55 11° 263° (W) 23:49:10 437.475
YUBILEINY 27 Jul 23:48:52 23:53:12 15° 280° (W) 23:57:32 435.215
ANTELSAT 27 Jul 23:56:02 00:00:32 56° 285° (WNW) 00:04:55 437.575/2403.000
PHONESAT 2.4 27 Jul 23:58:50 00:01:16 21° 218° (SW) 00:03:40 2401.200-2431.200
NANOSAT C BR1 28 Jul 00:19:10 00:22:56 30° 98° (E) 00:26:40 145.865
DUCHIFAT 1 28 Jul 00:23:04 00:26:51 31° 98° (E) 00:30:37 145.980
DX 1 28 Jul 00:24:16 00:28:26 50° 75° (ENE) 00:32:37 434.975-435.025
AISAT 28 Jul 00:26:57 00:31:19 84° 77° (ENE) 00:35:43 437.250
BUGSAT 1 28 Jul 00:35:21 00:38:14 18° 96° (E) 00:41:06 437.445
UKube-1 28 Jul 00:36:29 00:40:40 55° 75° (ENE) 00:44:53 .
AO-85 28 Jul 00:38:00 00:41:26 26° 250° (WSW) 00:44:42 145.980
TIGRISAT 28 Jul 00:38:30 00:41:48 20° 290° (WNW) 00:45:03 435.000
QB50P1 28 Jul 00:41:37 00:45:53 64° 101° (ESE) 00:50:05 145.935-145.965
JAS-2 28 Jul 00:43:21 00:47:17 20° 98° (E) 00:51:28 435.910
POPSAT HIP 1 28 Jul 00:48:07 00:52:26 77° 103° (ESE) 00:56:41 437.405
UNISAT 6 28 Jul 00:56:32 00:58:15 12° 293° (WNW) 00:59:58 437.425
50 SAT 28 Jul 00:57:56 01:01:12 30° 262° (W) 01:04:29 437.505
AIST 1 28 Jul 01:01:25 01:05:38 48° 82° (E) 01:09:51
ESTCUBE 1 28 Jul 01:06:24 01:09:35 19° 264° (W) 01:12:48 437.505/2401.250
Cosmos 2504 28 Jul 01:06:44 01:08:03 10° 281° (WNW) 01:09:21 435.465 / 435.565
JUGNU 28 Jul 01:06:55 01:11:13 20° 166° (SSE) 01:15:32 437.505
SPROUT 28 Jul 01:08:15 01:12:30 75° 259° (WSW) 01:16:47 437.525
QB50P2 28 Jul 01:09:23 01:13:32 51° 285° (WNW) 01:17:40 145.880/145.840
POLYITAN 1 28 Jul 01:12:02 01:16:11 49° 285° (WNW) 01:20:18 437.675
CUBEBUG 1 28 Jul 01:18:55 01:22:04 20° 264° (W) 01:25:13 437.445
VELOX 1 28 Jul 01:19:23 01:22:52 23° 263° (W) 01:26:21 145.980
NANOSAT C BR1 28 Jul 01:55:42 01:58:22 16° 290° (WNW) 02:01:02 145.865
GONETS M04 28 Jul 01:58:30 02:04:31 20° 72° (ENE) 02:10:30
DUCHIFAT 1 28 Jul 01:59:41 02:02:14 16° 291° (WNW) 02:04:47 145.980
TISAT 1 28 Jul 02:00:47 02:04:58 84° 257° (WSW) 02:09:11 437.305
Oscar 19 28 Jul 02:01:54 02:06:17 28° 98° (E) 02:10:40 437.125/150
Cosmos 2499 28 Jul 02:08:54 02:11:19 12° 68° (ENE) 02:13:42 435.465 / 435.565
BUGSAT 1 28 Jul 02:09:56 02:13:32 27° 288° (WNW) 02:17:08 437.445
SWISSCUBE 28 Jul 02:24:23 02:28:36 32° 72° (ENE) 02:32:49 437.505
JAS-2 28 Jul 02:27:18 02:32:21 41° 287° (WNW) 02:37:53 435.910
BEESAT 28 Jul 02:45:12 02:49:49 49° 74° (ENE) 02:54:25 436.000
JUGNU 28 Jul 02:54:36 02:59:46 30° 175° (S) 03:04:54 437.505
ITUPSAT 1 28 Jul 03:08:40 03:13:29 90° 168° (SSE) 03:18:18 437.325
CUSAT 1 28 Jul 03:10:55 03:12:49 13° 96° (E) 03:14:32 437.405
MOZHAYETS 4 28 Jul 03:21:29 03:23:08 12° 68° (ENE) 03:24:48
SRMSAT 28 Jul 03:25:19 03:29:35 20° 166° (SSE) 03:33:50 437.500
Gurwin Techsat 1B 28 Jul 03:28:11 03:33:32 88° 284° (WNW) 03:38:50 435.225
ITAMSAT 1 28 Jul 03:37:56 03:42:34 32° 98° (E) 03:47:09 435.822/435.867
DANDE 28 Jul 03:40:34 03:43:30 14° 94° (E) 03:46:06 436.750
Oscar 19 28 Jul 03:41:12 03:45:26 26° 290° (WNW) 03:49:41 437.125/150
BEESAT 3 28 Jul 03:48:32 03:51:53 26° 58° (ENE) 03:55:12 437.485
GONETS M04 28 Jul 03:53:10 04:01:54 69° 268° (W) 04:10:39
BEESAT 2 28 Jul 03:57:02 03:59:40 17° 55° (NE) 04:02:18 435.950
Cosmos 2499 28 Jul 03:57:46 04:05:27 86° 264° (W) 04:12:36 435.465 / 435.565
SWISSCUBE 28 Jul 04:02:57 04:06:21 19° 264° (W) 04:09:46 437.505
KKS-1 28 Jul 04:14:19 04:18:34 47° 74° (ENE) 04:22:50 437.445
BEESAT 28 Jul 04:25:52 04:27:46 12° 266° (W) 04:29:39 436.000
JUGNU 28 Jul 04:43:14 04:48:21 30° 185° (S) 04:53:27 437.505
PCSat 28 Jul 04:43:57 04:48:28 27° 58° (ENE) 04:52:59 145.827
STARS 28 Jul 04:50:21 04:54:39 59° 75° (ENE) 04:58:59 437.465
CUSAT 1 28 Jul 04:50:50 04:54:43 27° 277° (W) 04:57:51 437.405
AO-7 28 Jul 04:51:20 04:59:38 65° 105° (ESE) 05:07:50 29.400- 29.500
MOZHAYETS 4 28 Jul 04:55:18 04:59:48 51° 260° (W) 05:04:19
SRMSAT 28 Jul 05:13:08 05:18:15 30° 175° (S) 05:23:21 437.500
ISS 28 Jul 05:16:47 05:20:02 83° 231° (SW) 05:23:17 145.825
ITAMSAT 1 28 Jul 05:17:50 05:21:46 22° 291° (WNW) 05:25:42 435.822/435.867
DANDE 28 Jul 05:20:17 05:26:14 48° 277° (W) 05:30:45 436.750
BEESAT 3 28 Jul 05:26:40 05:29:19 17° 251° (WSW) 05:31:57 437.485
BEESAT 2 28 Jul 05:34:01 05:37:29 29° 249° (WSW) 05:40:56 435.950
HORYU 2 28 Jul 05:35:46 05:39:27 25° 97° (E) 05:43:07 437.375
RS-15 28 Jul 05:52:03 06:01:36 33° 104° (ESE) 06:11:31 29.354- 29.394
KKS-1 28 Jul 05:54:15 05:55:17 11° 266° (W) 05:56:20 437.445
AIST 2 28 Jul 06:05:30 06:08:33 19° 56° (NE) 06:11:35 435.215
CUBESAT XI-V 28 Jul 06:17:19 06:21:52 59° 259° (W) 06:26:25 437.345
PCSat 28 Jul 06:27:04 06:31:47 31° 252° (WSW) 06:36:29 145.827
BRITE-PL 28 Jul 06:27:53 06:32:14 28° 98° (E) 06:36:49 437.365/2234.400
JUGNU 28 Jul 06:32:44 06:36:52 19° 195° (SSW) 06:40:59 437.505
STRAND 1 28 Jul 06:37:12 06:38:29 11° 65° (ENE) 06:39:46 437.568
Cubesat XI-IV 28 Jul 06:40:32 06:44:20 20° 96° (E) 06:48:05 437.490
LilacSat-2 28 Jul 06:43:14 06:45:41 16° 95° (E) 06:48:06 437.200
AO-7 28 Jul 06:45:32 06:51:40 23° 299° (WNW) 06:57:47 29.400- 29.500
SRMSAT 28 Jul 07:01:55 07:06:59 30° 185° (S) 07:12:03 437.500
CUTE-I 28 Jul 07:02:59 07:07:49 34° 99° (E) 07:12:36 437.470
HORYU 2 28 Jul 07:12:27 07:15:49 21° 290° (WNW) 07:19:09 437.375
DOVE 4 28 Jul 07:13:46 07:17:07 17° 94° (E) 07:20:29 437.250
NOAA 15 28 Jul 07:19:19 07:24:35 72° 102° (ESE) 07:29:50 137.62
O/OREOS (USA 219) 28 Jul 07:23:11 07:27:44 81° 70° (ENE) 07:32:18 437.305
GOMX 1 28 Jul 07:24:24 07:29:29 51° 100° (E) 07:34:45 467.674
SO-50 28 Jul 07:30:17 07:34:36 32° 112° (ESE) 07:38:56 436.795
AIST 2 28 Jul 07:43:26 07:46:58 27° 249° (WSW) 07:50:30 435.215
NOAA 18 28 Jul 07:47:37 07:53:10 85° 283° (WNW) 07:58:40 137.9125
RS-15 28 Jul 08:02:10 08:13:15 58° 302° (WNW) 08:25:02 29.354- 29.394
BRITE-PL 28 Jul 08:06:26 08:10:31 26° 287° (WNW) 08:14:51 437.365/2234.400
STRAND 1 28 Jul 08:11:54 08:17:00 68° 258° (WSW) 08:22:09 437.568
LilacSat-2 28 Jul 08:16:49 08:19:54 23° 287° (WNW) 08:22:56 437.200
CANX-2 28 Jul 08:17:26 08:19:57 15° 95° (E) 08:22:28 2200.000
Cubesat XI-IV 28 Jul 08:19:31 08:24:26 38° 288° (WNW) 08:29:18 437.490
CUTE 1.7 + AOD 2 28 Jul 08:30:10 08:33:13 19° 96° (E) 08:36:14 437.475
PRISM 28 Jul 08:43:23 08:46:48 26° 72° (ENE) 08:50:12 437.425
CUTE-I 28 Jul 08:43:33 08:47:35 22° 291° (WNW) 08:51:35 437.470
YUBILEINY 28 Jul 08:49:17 08:54:32 18° 82° (E) 08:59:47 435.215
DOVE 4 28 Jul 08:49:54 08:54:51 45° 286° (WNW) 08:59:53 437.250
SRMSAT 28 Jul 08:51:33 08:55:39 19° 195° (SSW) 08:59:44 437.500
CINEMA 3 28 Jul 08:53:23 08:58:19 55° 100° (E) 09:03:07 145.822/145.860
HO-68 28 Jul 09:01:32 09:08:34 55° 102° (ESE) 09:15:33 435.675
NOAA 15 28 Jul 09:02:36 09:03:41 11° 296° (WNW) 09:04:46 137.62
GOMX 1 28 Jul 09:04:08 09:07:08 16° 291° (WNW) 09:10:11 467.674
SEEDS 28 Jul 09:06:30 09:10:24 38° 99° (E) 09:14:15 437.485
SO-50 28 Jul 09:11:13 09:15:04 23° 305° (NW) 09:18:56 436.795
COMPASS 1 28 Jul 09:16:14 09:19:58 33° 98° (E) 09:23:41 437.405
Cosmos 2491 28 Jul 09:21:41 09:30:23 64° 82° (E) 09:39:05 435.465 / 435.565
FUNcube-1 28 Jul 09:27:34 09:28:42 11° 93° (E) 09:29:50 145.935
ZACube-1 28 Jul 09:28:27 09:30:21 13° 93° (E) 09:32:14 437.345
UWE-3 28 Jul 09:29:07 09:32:40 22° 96° (E) 09:36:08 435.000/436.395/437.385
AAUSAT CUBESAT 2 28 Jul 09:43:07 09:47:10 59° 100° (E) 09:51:13 437.432
Cosmos 2504 28 Jul 09:49:34 09:53:18 13° 80° (E) 09:57:02 435.465 / 435.565
CANX-2 28 Jul 09:52:09 09:55:47 29° 287° (WNW) 09:59:25 2200.000
CUBEBUG 2 28 Jul 09:52:51 09:57:31 71° 101° (E) 10:02:02 437.445
TIGRISAT 28 Jul 09:55:37 09:57:46 13° 68° (ENE) 09:59:57 435.000
DELFI C3 28 Jul 09:59:14 09:59:33 10° 94° (E) 09:59:51 145.870
CUTE 1.7 + AOD 2 28 Jul 10:05:35 10:08:56 24° 288° (WNW) 10:12:18 437.475
Oscar 11 28 Jul 10:05:45 10:09:46 38° 99° (E) 10:13:46 145.826/435.025
UNISAT 6 28 Jul 10:10:54 10:14:23 22° 70° (ENE) 10:17:56 437.425
PRISM 28 Jul 10:19:28 10:22:03 16° 264° (W) 10:24:39 437.425
RS-15 28 Jul 10:23:10 10:29:07 15° 329° (NNW) 10:35:13 29.354- 29.394
HUMSAT D 28 Jul 10:32:21 10:34:15 13° 94° (E) 10:36:08 437.325/437.525
CINEMA 3 28 Jul 10:32:40 10:34:51 13° 293° (WNW) 10:37:03 145.822/145.860
YUBILEINY 28 Jul 10:41:33 10:50:18 73° 277° (W) 10:59:08 435.215
SEEDS 28 Jul 10:44:02 10:45:41 12° 291° (WNW) 10:47:22 437.485
ANTELSAT 28 Jul 10:48:07 10:52:38 59° 76° (ENE) 10:57:15 437.575/2403.000
HO-68 28 Jul 10:50:26 10:55:44 23° 296° (WNW) 11:01:03 435.675
COMPASS 1 28 Jul 10:53:06 10:55:11 14° 291° (WNW) 10:57:16 437.405
FUNcube-1 28 Jul 11:00:55 11:05:08 45° 285° (WNW) 11:09:14 145.935
ZACube-1 28 Jul 11:02:37 11:06:46 40° 286° (WNW) 11:10:49 437.345
M-CUBED/EXP-1 PRIME 28 Jul 11:02:50 11:07:24 48° 104° (ESE) 11:11:51 437.505
UWE-3 28 Jul 11:05:20 11:08:59 24° 289° (WNW) 11:12:34 435.000/436.395/437.385
NANOSAT C BR1 28 Jul 11:08:05 11:09:03 11° 68° (ENE) 11:10:00 145.865
DUCHIFAT 1 28 Jul 11:11:33 11:12:41 11° 68° (ENE) 11:13:49 145.980
Cosmos 2491 28 Jul 11:20:26 11:26:22 21° 277° (W) 11:32:20 435.465 / 435.565
AUBIESAT-1 28 Jul 11:27:46 11:32:26 77° 106° (ESE) 11:36:58 437.475
QB50P1 28 Jul 11:28:47 11:32:01 22° 71° (ENE) 11:35:15 145.935-145.965
TIGRISAT 28 Jul 11:29:34 11:33:58 46° 261° (W) 11:38:28 435.000
DELFI C3 28 Jul 11:30:50 11:34:29 38° 285° (WNW) 11:38:08 145.870
POPSAT HIP 1 28 Jul 11:35:04 11:38:33 25° 72° (ENE) 11:42:03 437.405
Cosmos 2504 28 Jul 11:36:34 11:45:23 88° 95° (E) 11:54:19 435.465 / 435.565
Oscar 11 28 Jul 11:43:31 11:45:30 13° 291° (WNW) 11:47:30 145.826/435.025
UNISAT 6 28 Jul 11:46:59 11:50:52 27° 263° (W) 11:54:51 437.425
QB50P2 28 Jul 11:55:38 11:59:44 51° 75° (ENE) 12:03:52 145.880/145.840
POLYITAN 1 28 Jul 11:58:14 12:02:22 52° 75° (ENE) 12:06:32 437.675
HUMSAT D 28 Jul 12:06:11 12:09:57 34° 286° (WNW) 12:13:39 437.325/437.525
DX 1 28 Jul 12:19:50 12:22:14 14° 95° (E) 12:24:37 434.975-435.025
AISAT 28 Jul 12:23:35 12:27:17 25° 97° (E) 12:30:59 437.250
UKube-1 28 Jul 12:30:56 12:33:25 15° 95° (E) 12:35:53 .
50 SAT 28 Jul 12:32:17 12:35:27 29° 98° (E) 12:38:36 437.505
JAS-2 28 Jul 12:33:11 12:38:56 41° 73° (ENE) 12:44:07 435.910
M-CUBED/EXP-1 PRIME 28 Jul 12:38:52 12:41:25 15° 297° (WNW) 12:43:57 437.505
NANOSAT C BR1 28 Jul 12:40:14 12:44:17 46° 260° (W) 12:48:23 145.865
DUCHIFAT 1 28 Jul 12:43:53 12:47:54 45° 260° (W) 12:51:59 145.980
BUGSAT 1 28 Jul 12:52:48 12:56:51 89° 105° (ESE) 13:01:00 437.445
SPROUT 28 Jul 13:00:32 13:04:17 29° 98° (E) 13:08:01 437.525
ESTCUBE 1 28 Jul 13:03:23 13:07:47 56° 285° (WNW) 13:12:10 437.505/2401.250
QB50P1 28 Jul 13:04:19 13:07:37 22° 263° (W) 13:10:57 145.935-145.965
AO-85 28 Jul 13:04:37 13:09:23 32° 111° (ESE) 13:14:04 145.980
POPSAT HIP 1 28 Jul 13:11:14 13:14:14 19° 264° (W) 13:17:16 437.405
CUBEBUG 1 28 Jul 13:11:59 13:16:22 69° 284° (WNW) 13:20:45 437.445
Oscar 19 28 Jul 13:13:23 13:17:15 22° 69° (ENE) 13:21:08 437.125/150
VELOX 1 28 Jul 13:14:16 13:18:43 78° 283° (WNW) 13:23:10 145.980
AIST 1 28 Jul 13:24:31 13:28:24 36° 92° (E) 13:32:19
Cosmos 2504 28 Jul 13:35:04 13:39:41 15° 290° (WNW) 13:44:21 435.465 / 435.565
TISAT 1 28 Jul 13:51:14 13:54:41 24° 97° (E) 13:58:06 437.305
DX 1 28 Jul 13:54:28 13:58:27 35° 287° (WNW) 14:02:25 434.975-435.025
AISAT 28 Jul 14:00:12 14:03:33 21° 289° (WNW) 14:06:54 437.250
UKube-1 28 Jul 14:05:35 14:09:27 33° 287° (WNW) 14:13:20 .
50 SAT 28 Jul 14:07:42 14:08:44 11° 290° (WNW) 14:09:48 437.505
JAS-2 28 Jul 14:19:22 14:23:58 21° 262° (W) 14:28:13 435.910
SWISSCUBE 28 Jul 14:32:11 14:34:20 13° 94° (E) 14:36:30 437.505
SPROUT 28 Jul 14:37:07 14:39:57 17° 290° (WNW) 14:42:47 437.525
Cosmos 2499 28 Jul 14:37:25 14:41:21 14° 81° (E) 14:45:15 435.465 / 435.565
Gurwin Techsat 1B 28 Jul 14:43:05 14:48:23 82° 76° (ENE) 14:53:43 435.225
AO-85 28 Jul 14:45:15 14:49:50 28° 303° (WNW) 14:54:18 145.980
ITAMSAT 1 28 Jul 14:50:12 14:54:34 28° 70° (ENE) 14:58:58 435.822/435.867
PHONESAT 2.4 28 Jul 14:50:15 14:51:29 12° 139° (SE) 14:52:42 2401.200-2431.200
GONETS M04 28 Jul 14:51:47 14:58:43 28° 85° (E) 15:05:40
Oscar 19 28 Jul 14:51:48 14:56:19 32° 262° (W) 15:00:52 437.125/150
BEESAT 28 Jul 14:52:10 14:55:42 20° 96° (E) 14:59:12 436.000
RS-15 28 Jul 15:00:04 15:09:46 26° 44° (NE) 15:19:17 29.354- 29.394
AIST 1 28 Jul 15:04:32 15:06:05 12° 285° (WNW) 15:07:39
ITUPSAT 1 28 Jul 15:15:30 15:19:55 37° 99° (E) 15:24:17 437.325
TISAT 1 28 Jul 15:26:59 15:30:07 20° 289° (WNW) 15:33:16 437.305
CUSAT 1 28 Jul 15:27:34 15:30:57 86° 83° (E) 15:35:22 437.405
AO-7 28 Jul 15:43:28 15:51:28 52° 68° (ENE) 15:59:29 29.400- 29.500
DANDE 28 Jul 16:04:41 16:07:25 61° 83° (E) 16:10:42 436.750
SWISSCUBE 28 Jul 16:07:45 16:12:16 45° 286° (WNW) 16:16:47 437.505
KKS-1 28 Jul 16:12:34 16:15:10 15° 95° (E) 16:17:46 437.445
Cosmos 2499 28 Jul 16:24:24 16:33:17 90° 99° (E) 16:42:05 435.465 / 435.565
PHONESAT 2.4 28 Jul 16:24:37 16:27:40 68° 331° (NNW) 16:30:44 2401.200-2431.200
BEESAT 28 Jul 16:29:19 16:33:24 29° 289° (WNW) 16:37:30 436.000
ITAMSAT 1 28 Jul 16:29:34 16:33:54 26° 263° (W) 16:38:15 435.822/435.867
HORYU 2 28 Jul 16:29:53 16:31:32 12° 67° (ENE) 16:33:12 437.375
GONETS M04 28 Jul 16:46:43 16:55:00 49° 280° (W) 17:03:22
STARS 28 Jul 16:46:46 16:49:46 18° 96° (E) 16:52:46 437.465
ITUPSAT 1 28 Jul 16:54:24 16:57:23 17° 292° (WNW) 17:00:22 437.325
MOZHAYETS 4 28 Jul 16:56:14 17:00:44 59° 101° (E) 17:05:12
RS-15 28 Jul 17:11:23 17:23:49 87° 245° (WSW) 17:35:54 29.354- 29.394
NOAA 18 28 Jul 17:32:39 17:33:24 10° 63° (ENE) 17:34:08 137.9125
BEESAT 3 28 Jul 17:34:00 17:36:44 18° 110° (ESE) 17:39:29 437.485
BRITE-PL 28 Jul 17:35:32 17:37:25 13° 69° (ENE) 17:39:18 437.365/2234.400
AO-7 28 Jul 17:37:30 17:44:20 28° 262° (W) 17:51:14 29.400- 29.500
BEESAT 2 28 Jul 17:44:44 17:46:07 12° 108° (ESE) 17:47:30 435.950
SO-50 28 Jul 17:47:23 17:51:56 67° 61° (ENE) 17:56:21 436.795
KKS-1 28 Jul 17:47:41 17:51:46 35° 287° (WNW) 17:55:50 437.445
Cubesat XI-IV 28 Jul 17:57:01 18:00:40 19° 68° (ENE) 18:04:20 437.490
PHONESAT 2.4 28 Jul 18:02:31 18:04:31 16° 346° (NNW) 18:06:32 2401.200-2431.200
HORYU 2 28 Jul 18:03:19 18:07:37 47° 260° (W) 18:11:58 437.375
CUTE-I 28 Jul 18:18:57 18:23:39 32° 71° (ENE) 18:28:22 437.470
CUBESAT XI-V 28 Jul 18:19:45 18:24:16 54° 100° (E) 18:28:48 437.345
STARS 28 Jul 18:22:14 18:26:05 29° 288° (WNW) 18:29:54 437.465
Cosmos 2499 28 Jul 18:22:49 18:27:17 15° 290° (WNW) 18:31:43 435.465 / 435.565
GOMX 1 28 Jul 18:28:04 18:31:20 23° 71° (ENE) 18:34:41 467.674
NOAA 15 28 Jul 18:33:21 18:38:31 63° 75° (ENE) 18:43:41 137.62
LilacSat-2 28 Jul 18:51:46 18:55:36 67° 77° (ENE) 18:59:28 437.200
NOAA 18 28 Jul 19:07:45 19:13:16 81° 257° (WSW) 19:18:50 137.9125
BEESAT 3 28 Jul 19:11:01 19:14:12 24° 303° (WNW) 19:17:26 437.485
BRITE-PL 28 Jul 19:11:49 19:15:36 33° 262° (W) 19:19:21 437.365/2234.400
PCSat 28 Jul 19:18:35 19:23:59 82° 113° (ESE) 19:29:26 145.827
BEESAT 2 28 Jul 19:19:51 19:23:32 37° 301° (WNW) 19:27:14 435.950
HO-68 28 Jul 19:25:05 19:30:19 22° 64° (ENE) 19:35:33 435.675
RS-15 28 Jul 19:27:51 19:34:31 17° 261° (W) 19:41:09 29.354- 29.394
Cubesat XI-IV 28 Jul 19:35:18 19:40:21 42° 261° (W) 19:45:26 437.490
PHONESAT 2.4 28 Jul 19:40:45 19:41:51 11° 3° (N) 19:42:57 2401.200-2431.200
DOVE 4 28 Jul 19:49:22 19:53:35 83° 257° (WSW) 19:58:02 437.250
CINEMA 3 28 Jul 19:49:33 19:53:07 24° 71° (ENE) 19:56:48 145.822/145.860
O/OREOS (USA 219) 28 Jul 19:51:38 19:54:46 19° 101° (E) 19:57:54 437.305
SEEDS 28 Jul 19:54:04 19:56:02 13° 69° (ENE) 19:57:58 437.485
AIST 2 28 Jul 19:57:57 20:00:28 16° 109° (ESE) 20:02:59 435.215
CUTE-I 28 Jul 19:59:21 20:03:37 24° 263° (W) 20:07:54 437.470
CUBESAT XI-V 28 Jul 19:59:56 20:01:07 11° 293° (WNW) 20:02:19 437.345
COMPASS 1 28 Jul 20:03:36 20:04:42 11° 69° (ENE) 20:05:50 437.405
GOMX 1 28 Jul 20:06:22 20:09:21 19° 265° (W) 20:12:24 467.674
ISS 28 Jul 20:15:29 20:18:38 50° 130° (SE) 20:21:47 145.825
NOAA 15 28 Jul 20:17:10 20:18:34 11° 267° (W) 20:19:59 137.62
Cosmos 2491 28 Jul 20:25:11 20:28:03 12° 80° (E) 20:30:55 435.465 / 435.565
AAUSAT CUBESAT 2 28 Jul 20:28:23 20:31:12 18° 71° (ENE) 20:34:00 437.432
STRAND 1 28 Jul 20:28:31 20:33:37 69° 102° (ESE) 20:38:40 437.568
CANX-2 28 Jul 20:37:55 20:42:13 85° 79° (E) 20:46:30 2200.000
CUBEBUG 2 28 Jul 20:44:56 20:48:49 28° 72° (ENE) 20:52:48 437.445
CUTE 1.7 + AOD 2 28 Jul 20:51:02 20:55:18 76° 258° (WSW) 20:59:34 437.475
Oscar 11 28 Jul 20:55:57 20:58:23 15° 69° (ENE) 21:00:49 145.826/435.025
YUBILEINY 28 Jul 20:59:39 21:07:56 43° 79° (E) 21:16:08 435.215
PCSat 28 Jul 21:06:21 21:07:58 11° 308° (NW) 21:09:36 145.827
HO-68 28 Jul 21:10:27 21:17:28 57° 258° (WSW) 21:24:32 435.675
PHONESAT 2.4 28 Jul 21:16:33 21:19:04 22° 20° (NNE) 21:21:34 2401.200-2431.200
CINEMA 3 28 Jul 21:26:32 21:30:06 23° 265° (W) 21:33:48 145.822/145.860
SEEDS 28 Jul 21:27:25 21:31:20 37° 261° (W) 21:35:16 437.485
O/OREOS (USA 219) 28 Jul 21:30:07 21:33:54 27° 294° (WNW) 21:37:42 437.305
AIST 2 28 Jul 21:35:01 21:38:38 30° 302° (WNW) 21:42:18 435.215
COMPASS 1 28 Jul 21:35:50 21:39:49 43° 261° (W) 21:43:49 437.405
Cosmos 2504 28 Jul 21:39:20 21:45:03 21° 72° (ENE) 21:50:28 435.465 / 435.565
M-CUBED/EXP-1 PRIME 28 Jul 21:44:44 21:47:25 19° 65° (ENE) 21:50:14 437.505
FUNcube-1 28 Jul 21:49:29 21:53:56 63° 76° (ENE) 21:58:27 145.935
ZACube-1 28 Jul 21:51:23 21:55:51 72° 76° (ENE) 22:00:25 437.345
ISS 28 Jul 21:53:51 21:55:16 12° 325° (NW) 21:56:41 145.825
UWE-3 28 Jul 21:54:48 21:59:17 64° 259° (W) 22:03:54 435.000/436.395/437.385
AAUSAT CUBESAT 2 28 Jul 22:02:58 22:06:27 26° 263° (W) 22:09:55 437.432
PRISM 28 Jul 22:05:04 22:09:10 77° 283° (WNW) 22:13:17 437.425
AUBIESAT-1 28 Jul 22:08:32 22:11:51 30° 68° (ENE) 22:15:24 437.475
DELFI C3 28 Jul 22:10:17 22:14:07 47° 76° (ENE) 22:17:56 145.870
STRAND 1 28 Jul 22:11:15 22:12:07 10° 295° (WNW) 22:13:01 437.568
Cosmos 2491 28 Jul 22:14:50 22:23:33 88° 94° (E) 22:32:18 435.465 / 435.565
CUBEBUG 2 28 Jul 22:22:01 22:25:22 20° 265° (W) 22:28:49 437.445
Oscar 11 28 Jul 22:30:12 22:34:10 35° 262° (W) 22:38:09 145.826/435.025
ANTELSAT 28 Jul 22:46:57 22:50:19 20° 95° (E) 22:53:36 437.575/2403.000
HUMSAT D 28 Jul 22:50:28 22:54:44 70° 77° (ENE) 22:59:02 437.325/437.525
PHONESAT 2.4 28 Jul 22:52:41 22:55:41 52° 213° (SSW) 22:58:40 2401.200-2431.200
YUBILEINY 28 Jul 22:56:53 23:04:21 32° 274° (W) 23:11:48 435.215
AISAT 28 Jul 23:17:33 23:18:45 11° 67° (ENE) 23:19:56 437.250
